Flag for U.S.A. Weather past 2 weeks in Binghamton, New York, U.S.A.

Now
55 °F

Passing clouds.


Feels Like: 53 °F
Forecast: 53 / 72 °F
Wind: 7 mph from South

Location: Binghamton Regional Airport

Current Time: Sep 19, 2014 at 10:08:05 PM

Latest Report: Sep 19, 2014 at 8:53 PM


Visibility: 10 mi

Pressure: 30.29 "Hg

Humidity: 74%

Dew point: 47 °F

Location of BinghamtonLocation

Historic Weather in Binghamton — Graph

°F

Binghamton temperature yesterday

Maximum temperature yesterday: 65 °F (at 1:53 PM)
Minimum temperature yesterday: 44 °F (at 5:53 AM)
Average temperature yesterday: 54 °F

Past Weeks' High & Low Weather Summary

 TemperatureHumidityPressure
High82 °F (Sep 5, 1:53 PM)100% (Sep 13, 1:53 PM)30.36 "Hg (Sep 13, 1:53 PM)
Low37 °F (Sep 19, 6:53 AM)44% (Sep 19, 3:53 PM)29.79 "Hg (Sep 11, 10:53 AM)
Average58 °F78%30.12 "Hg
* Reported Sep 4 7:53 PM — Sep 19 7:53 PM, Binghamton, Weather by CustomWeather, © 2014

Note: Actual official high and low records may vary slightly from our data, if they occured in-between our weather recording intervals... More about our weather records

Advertising

Binghamton weather history for previous 24 hours

 ConditionsComfort  
Time TempWeatherWind HumidityBarometerVisibility
7:53 PM
Sep 19
55 °FSunny.6 mph67%30.29 "Hg10 mi
6:53 PM58 °FSunny.5 mph56%30.28 "Hg10 mi
5:53 PM60 °FSunny.6 mph52%30.28 "Hg10 mi
4:53 PM60 °FSunny.5 mph47%30.29 "Hg10 mi
3:53 PM60 °FSunny.No wind44%30.31 "Hg10 mi
2:53 PM58 °FSunny.7 mph47%30.32 "Hg10 mi
1:53 PM55 °FSunny.No wind53%30.34 "Hg10 mi
12:53 PM53 °FSunny.No wind55%30.35 "Hg10 mi
11:53 AM51 °FSunny.7 mph63%30.35 "Hg10 mi
10:53 AM48 °FSunny.8 mph71%30.36 "Hg10 mi
9:53 AM45 °FSunny.6 mph82%30.34 "Hg10 mi
8:53 AM43 °FSunny.3 mph86%30.33 "Hg10 mi
7:53 AM39 °FSunny.No wind89%30.32 "Hg10 mi
6:53 AM37 °FClear.5 mph93%30.30 "Hg10 mi
5:53 AM38 °FClear.5 mph93%30.28 "Hg10 mi
4:53 AM38 °FClear.5 mph93%30.27 "Hg10 mi
3:53 AM40 °FClear.5 mph89%30.24 "Hg10 mi
2:53 AM42 °FClear.9 mph89%30.23 "Hg10 mi
1:53 AM43 °FClear.7 mph93%30.22 "Hg10 mi
12:53 AM45 °FClear.5 mph90%30.22 "Hg10 mi
11:53 PM
Sep 18
46 °FClear.6 mph89%30.20 "Hg10 mi
10:53 PM47 °FClear.7 mph90%30.19 "Hg10 mi
Weather by CustomWeather, © 2014

See weather overviewHow to use our weather pages